Flag for Australia Weather past 2 weeks in Perth, Western Australia, Australia

70 °F


Feels Like: 70 °F
Forecast: 64 / 76 °F
Wind: 9 mph from Southwest

Location: Belmont Perth Airport

Current Time: Nov 28, 2015 at 10:14:38 PM

Latest Report: Nov 28, 2015 at 9:30 PM

Visibility: 10 mi

Pressure: 29.98 "Hg

Humidity: 69%

Dew point: 59 °F

Location of PerthLocation

Historic Weather in Perth — Graph


Perth temperature yesterday

Maximum temperature yesterday: 88 °F (at 12:00 PM)
Minimum temperature yesterday: 64 °F (at 3:30 AM)
Average temperature yesterday: 75 °F

Past Weeks' High & Low Weather Summary

High102 °F (Nov 14, 12:00 PM)94% (Nov 15, 3:30 AM)30.30 "Hg (Nov 15, 3:30 AM)
Low48 °F (Nov 19, 5:00 AM)8% (Nov 21, 4:30 PM)29.65 "Hg (Nov 17, 4:30 AM)
Average72 °F50%29.95 "Hg
* Reported Nov 13 9:00 PM — Nov 28 9:00 PM, Perth, Weather by CustomWeather, © 2015

Note: Actual official high and low records may vary slightly from our data, if they occured in-between our weather recording intervals... More about our weather records


Perth weather history for previous 24 hours

Time TempWeatherWind HumidityBarometerVisibility
9:00 PM
Sat, Nov 28
70 °FClear.10 mph69%29.98 "Hg10 mi
8:30 PM70 °FClear.13 mph64%29.95 "Hg10 mi
8:00 PM70 °FClear.13 mph64%29.95 "Hg10 mi
7:30 PM72 °FClear.16 mph61%29.95 "Hg10 mi
7:00 PM72 °FClear.15 mph61%29.95 "Hg10 mi
6:30 PM75 °FClear.14 mph54%29.95 "Hg10 mi
6:00 PM75 °FPassing clouds.15 mph50%29.92 "HgN/A
5:30 PM77 °FPassing clouds.16 mph47%29.92 "HgN/A
5:00 PM77 °FPassing clouds.18 mph44%29.92 "HgN/A
4:30 PM79 °FPassing clouds.17 mph42%29.92 "HgN/A
4:00 PM79 °FPassing clouds.17 mph45%29.92 "HgN/A
3:30 PM81 °FPassing clouds.16 mph42%29.92 "HgN/A
2:00 PM81 °FPassing clouds.17 mph45%29.92 "HgN/A
1:30 PM81 °FPassing clouds.17 mph45%29.92 "HgN/A
12:30 PM79 °FPassing clouds.15 mph48%29.92 "HgN/A
12:00 PM79 °FSunny.15 mph45%29.95 "Hg10 mi
11:30 AM82 °FSunny.13 mph37%29.95 "Hg10 mi
11:00 AM81 °FSunny.3 mph39%29.95 "Hg10 mi
10:30 AM79 °FSunny.7 mph39%29.95 "Hg10 mi
10:00 AM79 °FSunny.6 mph42%29.95 "Hg10 mi
9:30 AM77 °FSunny.5 mph44%29.95 "Hg10 mi
9:00 AM75 °FSunny.6 mph44%29.95 "Hg10 mi
8:30 AM73 °FSunny.6 mph50%29.95 "Hg10 mi
8:00 AM72 °FSunny.8 mph50%29.95 "Hg10 mi
7:00 AM66 °FSunny.8 mph60%29.95 "Hg10 mi
6:30 AM66 °FSunny.8 mph60%29.95 "Hg10 mi
6:00 AM63 °FSunny.8 mph68%29.95 "Hg10 mi
5:30 AM63 °FSunny.9 mph68%29.92 "Hg10 mi
5:00 AM63 °FSunny.7 mph68%29.92 "Hg10 mi
4:30 AM63 °FSunny.8 mph68%29.92 "Hg10 mi
4:00 AM63 °FClear.9 mph68%29.89 "Hg10 mi
3:30 AM64 °FClear.10 mph68%29.89 "Hg10 mi
3:00 AM66 °FClear.10 mph60%29.89 "Hg10 mi
2:30 AM66 °FClear.10 mph64%29.89 "Hg10 mi
2:00 AM66 °FClear.9 mph64%29.86 "Hg10 mi
1:30 AM68 °FClear.10 mph60%29.86 "Hg10 mi
1:00 AM70 °FClear.9 mph53%29.86 "Hg10 mi
12:30 AM72 °FClear.12 mph53%29.86 "Hg10 mi
12:00 AM72 °FClear.8 mph53%29.86 "Hg10 mi
11:30 PM
Fri, Nov 27
73 °FClear.12 mph47%29.86 "Hg10 mi
11:00 PM72 °FClear.13 mph57%29.86 "Hg10 mi
10:30 PM72 °FClear.10 mph69%29.86 "Hg10 mi
10:00 PM73 °FClear.13 mph65%29.86 "Hg10 mi
Weather by CustomWeather, © 2015

See weather overviewHow to use our weather pages